[[{"header":{"parameterUnit":"m.s-1","parameterCategory":1,"la1":30.2991,"la2":30.254,"lo1":-89.0895,"lo2":-89.0444,"dy":0.0017,"dx":0.0017,"nx":28,"ny":28,"refTime":"2025-01-18T03:00:00:Z","depth":0,"parameterNumber":2,"parameterNumberName":"U-component_of_WINDS"},"data":[0,0,0,0,0,0,0,0,0,0,0,0,0,0,0,0,0,0,0,0,0,0,0,0,0,0,0,0,0,0,0,0,0,0,0,0,0,0,0,0,0,0,0,0,0,0,0,0,0,0,0,0,0,0,0,0,0,0,0.9784,0.9784,0,0.9814,0.9815,0.9815,0.9792,0.9791,0.979,0.9789,0.9821,0.9823,0.9824,0,0,0,0,0,0,0,0,0,0,0,0,0,0.9705,0.9706,0.9783,0.9784,0.9784,0.9814,0.9815,0.9815,0.9792,0.9791,0.979,0.9789,0.982,0.9822,0.9824,0,0,0,0,0,0,0,0,0,0,0,0,0,0.9738,0.9707,0.9783,0.9776,0.9776,0.9814,0.9815,0.9815,0.9793,0.9791,0.9789,0.9788,0.982,0.9822,0.9825,0.9871,0,0,0.9833,0.9834,0,0,0,0,0,0,0,0,0.9736,0.974,0.9777,0.9777,0.9777,0.9798,0.9799,0.9834,0.9793,0.9786,0.9789,0.9787,0.9814,0.9817,0.9826,0.9873,0.9874,0.9833,0.9835,0.9836,0.9837,0,0,0,0,0,0,0,0.9733,0.9739,0.9796,0.9778,0.9777,0.9772,0.9775,0.9805,0.9808,0.9787,0.9785,0.9789,0.9814,0.9824,0.9827,0.9875,0.9833,0.9835,0.9837,0.9838,0.9961,0.9963,0,0,0,0,0,0,0.9732,0.9737,0.9795,0.9797,0.9752,0.9774,0.9778,0.9793,0.9808,0.9809,0.979,0.9788,0.982,0.9824,0.9828,0.9884,0.9836,0.9838,0.984,0.996,0.9962,0.9964,0,0,0,0,0,0,0.973,0.9737,0.9793,0.9767,0.9773,0.9777,0.9794,0.9794,0.9804,0.9811,0.9811,0.98,0.9819,0.9824,0.9861,0.9885,0.984,0.9842,0.9958,0.996,0.9963,0.9997,0,0,0,0,0,0,0.9728,0.9737,0.9755,0.9767,0.9775,0.9826,0.9796,0.9796,0.9809,0.9806,0.982,0.9821,0.9818,0.9857,0.9864,0.9888,0.9844,0.9956,0.9959,0.9962,0.9994,1.0,1.0006,0,0,0,0,0,0.9725,0.9763,0.9756,0.9763,0.9797,0.9827,0.9832,0.9828,0.9811,0.9829,0.9833,0.982,0.9881,0.9861,0.9868,0.9894,0.9954,0.9958,0.9962,0.9991,0.9999,1.0006,0,0,0,0,0,0,0.9753,0.9764,0.9756,0.9799,0.9812,0.9823,0.9846,0.9837,0.9855,0.9852,0.9846,0.985,0.9888,0.9894,0.9872,0.994,0.9915,0.992,0.9935,0.9942,0.9948,0.9946,0.9846,0,0,0,0,0,0.9764,0.9788,0.9796,0.9833,0.984,0.9842,0.9855,0.9851,0.9865,0.987,0.9877,0.9891,0.9913,0.9928,0.9949,0.9994,0.9997,1.0015,1.0021,1.0026,1.0031,1.0056,1.0064,0.9976,0.9976,0.9976,0,0,0.9787,0.9796,0.9811,0.9839,0.9849,0.9873,0.9847,0.9874,0.9892,0.9874,0.991,0.9915,0.993,0.9971,0.999,0.9978,1.0056,1.0031,1.0035,1.0037,1.0061,1.0069,1.0077,0.9978,0.9978,0.9978,0,0,0.9842,0.9851,0.9883,0.9894,0.9909,0.991,0.9918,0.993,0.9933,0.9968,0.9955,0.9977,1.0015,1.0026,1.0037,1.0096,1.0086,1.0103,1.0135,1.016,1.0167,1.0173,1.0195,1.0203,1.0108,1.0108,1.0108,0,0.9869,0.9906,0.9901,0.9929,0.9942,0.9926,0.9959,0.9969,0.999,0.9999,0.9985,1.0033,1.0042,1.0086,1.01,1.0109,1.0118,1.0102,1.0166,1.0172,1.0178,1.0199,1.0207,1.011,1.011,1.011,1.0109,0,0.9938,0.9964,0.9988,1.0009,1.0024,1.0055,1.0054,1.007,1.0065,1.0067,1.0103,1.0113,1.0136,1.0146,1.0141,1.0189,1.0181,1.0167,1.0142,1.0189,1.0208,1.0216,1.0113,1.0112,1.0112,1.0111,0,0,1.0012,1.003,1.0039,1.0049,1.0064,1.0084,1.0114,1.0136,1.015,1.0165,1.019,1.0223,1.0209,1.0221,1.0217,1.0239,1.0286,1.0221,1.0222,1.0234,1.034,1.0352,1.0361,1.0278,1.028,1.0281,1.0339,0,1.0068,1.012,1.0116,1.0165,1.0189,1.0175,1.02,1.0213,1.0216,1.0237,1.024,1.0263,1.0244,1.0251,1.0271,1.0276,1.0307,1.0271,1.0302,1.0303,1.0299,1.0371,1.0383,1.0438,1.0347,1.0348,1.0349,0,1.0141,1.0159,1.021,1.0223,1.0233,1.0256,1.0276,1.0296,1.031,1.0311,1.0324,1.0317,1.0347,1.032,1.0361,1.0337,1.0349,1.0353,1.0355,1.0359,1.0329,1.0377,1.0456,1.0464,1.0361,1.036,1.0359,0,1.019,1.0227,1.0263,1.0272,1.0287,1.0304,1.0311,1.0323,1.0337,1.0354,1.0363,1.0384,1.0396,1.0412,1.041,1.0391,1.0452,1.0426,1.0454,1.0454,1.0468,1.0468,1.0551,1.0475,1.0475,1.0475,1.0474,0,1.0254,1.0286,1.0286,1.0308,1.0343,1.0339,1.0374,1.0379,1.039,1.0413,1.0401,1.0423,1.0419,1.0441,1.0439,1.0474,1.0479,1.0481,1.048,1.0482,1.0482,1.0491,1.0487,1.0477,1.0476,1.0476,1.0475,0,1.0316,1.0317,1.0355,1.0366,1.037,1.0395,1.0405,1.0426,1.0428,1.0457,1.0463,1.0467,1.0491,1.0491,1.0519,1.0518,1.0561,1.0556,1.0557,1.0556,1.0584,1.0582,1.0676,1.0689,1.0604,1.0605,1.0606,0,1.0357,1.0381,1.0395,1.041,1.0418,1.0442,1.0456,1.0452,1.0467,1.0485,1.0504,1.0527,1.0546,1.0587,1.0591,1.0613,1.0608,1.064,1.0612,1.0613,1.061,1.0609,1.0611,1.0646,1.0647,1.0648,1.0648,0,1.043,1.0429,1.045,1.0471,1.0488,1.0505,1.052,1.0532,1.053,1.0547,1.0573,1.0588,1.0616,1.064,1.0661,1.0668,1.0658,1.0657,1.0665,1.0668,1.0667,1.0669,1.0573,1.0655,1.0654,1.0654,1.0653,1.0653,1.0483,1.0504,1.0518,1.0541,1.0552,1.0567,1.0587,1.0592,1.0613,1.0636,1.0632,1.0661,1.0674,1.0701,1.071,1.0732,1.0721,1.0732,1.0735,1.0738,1.0742,1.0663,1.0736,1.0736,1.0735,1.0735,1.0735,0,1.0556,1.0564,1.0586,1.0607,1.0626,1.0615,1.0631,1.0647,1.0673,1.0686,1.0705,1.0734,1.0757,1.0764,1.0786,1.0802,1.0798,1.0808,1.0808,1.081,1.075,1.0742,1.0811,1.0811,1.0811,1.0811,1.0811,1.0811,1.0596,1.0632,1.0633,1.0674,1.0681,1.0709,1.072,1.0733,1.0743,1.0777,1.0796,1.08,1.0811,1.0834,1.0855,1.0856,1.0865,1.0877,1.0877,1.0821,1.0814,1.0806,1.0798,1.0879,1.0879,1.0934,1.0935,1.0935]},{"header":{"parameterUnit":"m.s-1","parameterCategory":1,"la1":30.2991,"la2":30.254,"lo1":-89.0895,"lo2":-89.0444,"dy":0.0017,"dx":0.0017,"nx":28,"ny":28,"refTime":"2025-01-18T03:00:00:Z","depth":0,"parameterNumber":3,"parameterNumberName":"V-component_of_WINDS"},"data":[0,0,0,0,0,0,0,0,0,0,0,0,0,0,0,0,0,0,0,0,0,0,0,0,0,0,0,0,0,0,0,0,0,0,0,0,0,0,0,0,0,0,0,0,0,0,0,0,0,0,0,0,0,0,0,0,0,0,3.8492,3.8494,0,3.8633,3.8635,3.8636,3.866,3.8659,3.8658,3.8656,3.8801,3.8806,3.8811,0,0,0,0,0,0,0,0,0,0,0,0,0,3.8245,3.825,3.8492,3.8494,3.8496,3.8633,3.8635,3.8637,3.866,3.8659,3.8657,3.8656,3.8799,3.8805,3.8811,0,0,0,0,0,0,0,0,0,0,0,0,0,3.8366,3.8251,3.8492,3.8524,3.8528,3.8632,3.8635,3.8637,3.8661,3.8659,3.8657,3.8655,3.8797,3.8804,3.8812,3.8894,0,0,3.8835,3.8838,0,0,0,0,0,0,0,0,3.8359,3.8375,3.8518,3.8522,3.8527,3.8627,3.8601,3.8723,3.8661,3.861,3.8656,3.8654,3.8745,3.8756,3.8787,3.8901,3.8907,3.8835,3.884,3.8843,3.8845,0,0,0,0,0,0,0,3.8351,3.8369,3.8548,3.852,3.8525,3.8532,3.8547,3.8624,3.8686,3.8615,3.8617,3.8633,3.8747,3.8779,3.879,3.8909,3.8835,3.8842,3.8846,3.8849,3.91,3.9102,0,0,0,0,0,0,3.8336,3.8362,3.8543,3.8552,3.8437,3.8538,3.8555,3.8597,3.8685,3.8697,3.8634,3.8634,3.8767,3.8781,3.8795,3.8899,3.8843,3.885,3.8854,3.9098,3.9101,3.9103,0,0,0,0,0,0,3.8331,3.8352,3.8538,3.8458,3.8482,3.8544,3.8591,3.8601,3.8633,3.87,3.8711,3.8656,3.8767,3.8785,3.887,3.8905,3.8853,3.886,3.9095,3.9099,3.9102,3.9107,0,0,0,0,0,0,3.8324,3.835,3.8382,3.8458,3.8486,3.861,3.8593,3.8605,3.8646,3.8646,3.8724,3.8735,3.8767,3.8859,3.8877,3.8914,3.8866,3.9092,3.9097,3.9101,3.9104,3.911,3.9115,0,0,0,0,0,3.8315,3.8377,3.8383,3.8405,3.8527,3.8612,3.8627,3.8663,3.8648,3.8681,3.8724,3.8732,3.8897,3.8867,3.8888,3.8928,3.909,3.9096,3.91,3.9101,3.9109,3.9115,0,0,0,0,0,0,3.8303,3.8388,3.8395,3.8484,3.854,3.8615,3.8658,3.8669,3.8731,3.8729,3.877,3.8787,3.8871,3.8907,3.8872,3.9013,3.8993,3.9002,3.8986,3.8994,3.8999,3.899,3.8872,0,0,0,0,0,3.831,3.8372,3.8443,3.8514,3.8542,3.8595,3.8633,3.8656,3.8716,3.874,3.8789,3.8847,3.8913,3.8955,3.9018,3.9108,3.9127,3.9146,3.9152,3.9156,3.9164,3.9217,3.9227,3.9119,3.9119,3.9119,0,0,3.8327,3.8381,3.8417,3.8513,3.856,3.8624,3.8615,3.8682,3.873,3.875,3.8834,3.8872,3.894,3.9029,3.907,3.9062,3.9198,3.9162,3.9165,3.9171,3.9223,3.9233,3.9242,3.9122,3.9122,3.9121,0,0,3.839,3.8436,3.8502,3.8549,3.8619,3.8654,3.867,3.8743,3.877,3.8855,3.8872,3.8929,3.904,3.9089,3.9128,3.921,3.9221,3.923,3.926,3.9311,3.9319,3.9327,3.9359,3.937,3.9237,3.9237,3.9237,0,3.8402,3.8498,3.8534,3.8602,3.8644,3.8665,3.8733,3.8777,3.8864,3.8893,3.8883,3.9024,3.9071,3.9172,3.9193,3.9223,3.9243,3.9222,3.9315,3.9323,3.9331,3.9362,3.9374,3.9238,3.9238,3.9238,3.9238,0,3.851,3.8577,3.8622,3.8707,3.8754,3.8821,3.8868,3.8912,3.893,3.8966,3.9053,3.911,3.9187,3.9212,3.923,3.9317,3.931,3.9306,3.9288,3.9342,3.9372,3.9383,3.9239,3.9239,3.9239,3.9239,0,0,3.857,3.8675,3.8691,3.8731,3.881,3.8863,3.8932,3.9007,3.9045,3.9104,3.9164,3.9258,3.9256,3.93,3.9324,3.9368,3.9433,3.936,3.9362,3.9374,3.9535,3.9539,3.9552,3.944,3.9442,3.9444,3.953,0,3.8645,3.8768,3.8803,3.8907,3.8971,3.8992,3.9052,3.9108,3.9143,3.9203,3.9242,3.9309,3.93,3.9327,3.9372,3.9416,3.9467,3.941,3.9497,3.95,3.9482,3.9567,3.9571,3.9649,3.9542,3.9544,3.9545,0,3.8748,3.8811,3.8922,3.8995,3.9023,3.9076,3.9149,3.9205,3.9269,3.9292,3.9343,3.9363,3.9436,3.9412,3.9515,3.9475,3.9513,3.954,3.9544,3.9555,3.9527,3.9583,3.9675,3.9687,3.9563,3.9562,3.956,0,3.8784,3.8896,3.8977,3.901,3.9097,3.9135,3.9173,3.9235,3.9279,3.9342,3.9371,3.9442,3.9481,3.9536,3.9576,3.9554,3.9676,3.9654,3.9699,3.9698,3.9725,3.9723,3.9827,3.9745,3.9745,3.9745,3.9744,0,3.8865,3.8932,3.8995,3.9045,3.9122,3.9162,3.9237,3.9276,3.9331,3.939,3.9412,3.9467,3.9514,3.9576,3.9607,3.9689,3.9706,3.9728,3.9736,3.9727,3.9725,3.9754,3.9751,3.9748,3.9747,3.9747,3.9746,0,3.8918,3.8963,3.9053,3.9129,3.9149,3.9203,3.9268,3.9318,3.9354,3.9429,3.9449,3.9506,3.958,3.9624,3.9717,3.9738,3.983,3.9834,3.9808,3.9812,3.9855,3.9852,3.9983,4.0004,3.9906,3.9907,3.9908,0,3.8968,3.9021,3.9102,3.9144,3.9182,3.9248,3.9293,3.9334,3.938,3.9458,3.9499,3.9574,3.9637,3.9754,3.9805,3.9877,3.9885,3.9926,3.9896,3.9886,3.9888,3.9886,3.9892,3.9931,3.9932,3.9933,3.9934,0,3.9053,3.9072,3.9136,3.9209,3.9262,3.9321,3.9379,3.9412,3.9462,3.9513,3.9589,3.9638,3.9734,3.9809,3.9885,3.9925,3.9939,3.9942,3.9957,3.995,3.9934,3.9946,3.9825,3.994,3.9939,3.9939,3.9938,3.9938,3.9108,3.9157,3.9222,3.9293,3.9341,3.9396,3.9448,3.9491,3.9555,3.9637,3.9657,3.9737,3.9802,3.9906,3.9948,4.0012,4.0005,4.0026,4.0031,4.0036,4.0039,3.9922,4.0025,4.0025,4.0025,4.0025,4.0025,0,3.9195,3.9239,3.9304,3.9386,3.9442,3.9449,3.9515,3.9562,3.9632,3.9691,3.9753,3.9841,3.9915,3.9971,4.0046,4.0087,4.0095,4.0106,4.0104,4.0114,4.0039,4.002,4.0098,4.0098,4.0098,4.0098,4.0098,4.0098,3.9248,3.9332,3.9359,3.9468,3.9511,3.959,3.9627,3.9678,3.9726,3.9824,3.9885,3.9922,3.998,4.006,4.0129,4.0143,4.0171,4.0181,4.0197,4.0127,4.0119,4.0111,4.0094,4.0186,4.0186,4.0267,4.0268,4.0268]}]]